TimeMST,TemperatureF,Dew PointF,Humidity,Sea Level PressureIn,VisibilityMPH,Wind Direction,Wind SpeedMPH,Gust SpeedMPH,PrecipitationIn,Events,Conditions,WindDirDegrees,DateUTC
12:56 AM,-15.0,-20.9,75,30.75,-9999.0,Calm,Calm,-,N/A,,Unknown,0,2013-01-03 07:56:00
1:56 AM,-17.0,-22.0,78,30.78,-9999.0,Calm,Calm,-,N/A,,Unknown,0,2013-01-03 08:56:00
2:56 AM,-17.0,-23.1,74,30.76,-9999.0,Calm,Calm,-,N/A,,Unknown,0,2013-01-03 09:56:00
3:56 AM,-18.0,-23.1,78,30.77,-9999.0,Calm,Calm,-,N/A,,Unknown,0,2013-01-03 10:56:00
4:56 AM,-17.0,-23.1,74,30.79,-9999.0,Calm,Calm,-,N/A,,Unknown,0,2013-01-03 11:56:00
5:56 AM,-18.0,-24.0,74,30.82,-9999.0,Calm,Calm,-,N/A,,Unknown,0,2013-01-03 12:56:00
6:56 AM,-18.0,-24.0,74,30.85,-9999.0,Calm,Calm,-,N/A,,Unknown,0,2013-01-03 13:56:00
7:56 AM,-18.0,-24.0,74,30.85,-9999.0,Calm,Calm,-,N/A,,Unknown,0,2013-01-03 14:56:00
8:56 AM,-13.0,-18.0,78,30.82,-9999.0,Calm,Calm,-,N/A,,Unknown,0,2013-01-03 15:56:00
9:56 AM,-6.0,-9.0,87,30.80,-9999.0,Calm,Calm,-,N/A,,Unknown,0,2013-01-03 16:56:00
10:56 AM,-2.0,-9.0,72,30.79,-9999.0,ESE,3.5,-,N/A,,Unknown,120,2013-01-03 17:56:00
11:56 AM,3.0,-6.0,66,30.75,-9999.0,Calm,Calm,-,N/A,,Unknown,0,2013-01-03 18:56:00
12:56 PM,5.0,-4.0,66,30.72,-9999.0,Calm,Calm,-,N/A,,Unknown,0,2013-01-03 19:56:00
1:56 PM,7.0,-2.0,67,30.71,-9999.0,ESE,3.5,-,N/A,,Unknown,110,2013-01-03 20:56:00
2:56 PM,6.1,-2.9,67,30.72,-9999.0,Calm,Calm,-,N/A,,Unknown,0,2013-01-03 21:56:00
3:56 PM,3.9,-2.9,73,30.75,-9999.0,Calm,Calm,-,N/A,,Unknown,0,2013-01-03 22:56:00
4:56 PM,1.0,-4.0,79,30.78,-9999.0,Calm,Calm,-,N/A,,Unknown,0,2013-01-03 23:56:00
5:56 PM,-0.9,-5.1,83,30.82,-9999.0,NW,3.5,-,N/A,,Unknown,320,2013-01-04 00:56:00
6:56 PM,-2.9,-8.0,79,30.84,-9999.0,Calm,Calm,-,N/A,,Unknown,0,2013-01-04 01:56:00
7:56 PM,-6.0,-11.0,79,30.85,-9999.0,Calm,Calm,-,N/A,,Unknown,0,2013-01-04 02:56:00
8:56 PM,-7.1,-11.0,83,30.81,-9999.0,Calm,Calm,-,N/A,,Unknown,0,2013-01-04 03:56:00
9:56 PM,-8.0,-13.0,79,30.76,-9999.0,Calm,Calm,-,N/A,,Unknown,0,2013-01-04 04:56:00
10:56 PM,-9.0,-14.1,79,30.75,-9999.0,Calm,Calm,-,N/A,,Unknown,0,2013-01-04 05:56:00
11:56 PM,-9.9,-16.1,74,30.72,-9999.0,Calm,Calm,-,N/A,,Unknown,0,2013-01-04 06:56:00